Total_Precipitation_Accumulation
0.03 0.07 0.20 0.26 0.28 0.30 0.35 0.37 0.37 0.35 0.34 0.37 0.41 0.43 0.44 0.45 0.45 0.45 0.46 0.47 0.49 0.56 0.61 0.62 0.61 0.61 0.58 0.50 0.46 0.39 0.33 0.29 0.29 0.29 0.33 0.38 0.41 0.36 0.30 0.27 0.22 0.32 0.46
0.06 0.09 0.19 0.24 0.27 0.30 0.32 0.34 0.36 0.33 0.32 0.35 0.37 0.40 0.43 0.45 0.46 0.48 0.51 0.50 0.53 0.57 0.60 0.65 0.60 0.57 0.53 0.47 0.48 0.40 0.33 0.26 0.22 0.21 0.22 0.24 0.35 0.37 0.30 0.30 0.31 0.48 0.54
0.04 0.08 0.17 0.22 0.26 0.30 0.32 0.33 0.33 0.32 0.33 0.35 0.37 0.41 0.45 0.46 0.46 0.50 0.53 0.54 0.55 0.60 0.62 0.63 0.60 0.55 0.52 0.49 0.51 0.45 0.34 0.30 0.21 0.16 0.14 0.15 0.28 0.39 0.37 0.35 0.38 0.55 0.57
0.02 0.06 0.12 0.22 0.27 0.31 0.33 0.34 0.34 0.34 0.35 0.36 0.40 0.44 0.47 0.48 0.50 0.52 0.54 0.55 0.58 0.60 0.64 0.62 0.60 0.59 0.56 0.56 0.52 0.43 0.33 0.29 0.21 0.14 0.07 0.11 0.33 0.51 0.48 0.42 0.40 0.52 0.55
0.02 0.04 0.12 0.23 0.29 0.33 0.36 0.37 0.37 0.39 0.39 0.42 0.43 0.47 0.51 0.53 0.56 0.55 0.52 0.50 0.52 0.53 0.54 0.54 0.58 0.64 0.63 0.62 0.55 0.46 0.37 0.31 0.20 0.10 0.07 0.14 0.36 0.56 0.48 0.43 0.42 0.49 0.52
0.02 0.05 0.13 0.23 0.31 0.36 0.40 0.40 0.40 0.42 0.43 0.46 0.49 0.51 0.57 0.63 0.64 0.61 0.57 0.55 0.51 0.50 0.51 0.52 0.58 0.67 0.65 0.60 0.55 0.53 0.52 0.39 0.21 0.09 0.08 0.13 0.25 0.45 0.50 0.54 0.56 0.53 0.51
0.04 0.07 0.13 0.23 0.33 0.38 0.42 0.44 0.44 0.47 0.48 0.51 0.52 0.55 0.60 0.65 0.66 0.65 0.65 0.61 0.58 0.55 0.54 0.52 0.55 0.64 0.63 0.58 0.56 0.54 0.57 0.41 0.21 0.17 0.11 0.10 0.21 0.42 0.63 0.70 0.71 0.61 0.55
0.03 0.05 0.11 0.24 0.34 0.39 0.45 0.48 0.50 0.54 0.58 0.59 0.58 0.63 0.66 0.67 0.68 0.67 0.66 0.62 0.60 0.57 0.55 0.55 0.55 0.59 0.57 0.53 0.53 0.52 0.49 0.31 0.24 0.29 0.23 0.21 0.32 0.56 0.72 0.88 0.86 0.70 0.61
0.05 0.08 0.14 0.25 0.35 0.43 0.50 0.54 0.57 0.61 0.64 0.65 0.66 0.69 0.73 0.73 0.74 0.71 0.66 0.59 0.58 0.58 0.58 0.57 0.54 0.50 0.48 0.46 0.48 0.48 0.41 0.28 0.24 0.39 0.37 0.46 0.43 0.60 0.69 0.82 0.90 0.78 0.66
0.09 0.13 0.18 0.28 0.34 0.43 0.52 0.59 0.64 0.68 0.70 0.76 0.80 0.74 0.74 0.81 0.85 0.81 0.72 0.65 0.61 0.58 0.56 0.55 0.52 0.45 0.39 0.38 0.39 0.37 0.30 0.23 0.17 0.30 0.55 0.53 0.46 0.72 0.82 0.82 0.88 0.84 0.78
0.15 0.18 0.23 0.32 0.40 0.46 0.52 0.58 0.71 0.81 0.84 0.89 0.93 0.85 0.84 0.85 0.83 0.79 0.71 0.69 0.63 0.61 0.56 0.55 0.53 0.50 0.46 0.41 0.37 0.32 0.25 0.17 0.15 0.25 0.37 0.40 0.52 0.75 0.95 0.96 0.94 0.88 0.81
0.16 0.21 0.27 0.35 0.43 0.54 0.60 0.67 0.76 0.84 0.90 0.90 0.81 0.84 0.87 0.82 0.80 0.77 0.75 0.75 0.70 0.68 0.66 0.64 0.57 0.53 0.50 0.42 0.42 0.38 0.22 0.15 0.14 0.13 0.17 0.25 0.43 0.67 0.86 0.98 1.07 1.02 0.91
0.17 0.22 0.30 0.39 0.49 0.60 0.65 0.69 0.74 0.79 0.84 0.86 0.78 0.73 0.76 0.80 0.81 0.82 0.77 0.77 0.77 0.76 0.77 0.73 0.70 0.57 0.49 0.46 0.48 0.42 0.27 0.21 0.16 0.13 0.11 0.18 0.30 0.46 0.69 0.89 1.06 1.15 1.11
0.22 0.26 0.33 0.42 0.52 0.61 0.69 0.72 0.72 0.74 0.75 0.74 0.75 0.76 0.74 0.75 0.69 0.69 0.70 0.66 0.66 0.66 0.67 0.69 0.65 0.59 0.51 0.47 0.47 0.44 0.36 0.29 0.21 0.18 0.15 0.21 0.27 0.32 0.47 0.67 0.87 1.12 1.24
0.24 0.30 0.36 0.45 0.54 0.63 0.74 0.79 0.78 0.76 0.70 0.69 0.72 0.79 0.77 0.70 0.65 0.66 0.65 0.64 0.64 0.62 0.61 0.58 0.54 0.51 0.48 0.45 0.46 0.44 0.38 0.31 0.25 0.23 0.20 0.23 0.26 0.27 0.36 0.52 0.70 0.98 1.27
0.26 0.33 0.40 0.48 0.57 0.67 0.73 0.78 0.79 0.78 0.77 0.78 0.77 0.75 0.80 0.79 0.69 0.68 0.70 0.65 0.63 0.62 0.60 0.59 0.54 0.51 0.47 0.44 0.41 0.37 0.36 0.33 0.28 0.28 0.27 0.27 0.27 0.27 0.31 0.43 0.58 0.76 1.08
0.28 0.37 0.46 0.50 0.61 0.72 0.73 0.81 0.83 0.82 0.83 0.84 0.81 0.79 0.82 0.84 0.83 0.75 0.72 0.69 0.64 0.65 0.66 0.66 0.62 0.54 0.51 0.45 0.41 0.36 0.32 0.29 0.26 0.27 0.29 0.30 0.31 0.30 0.31 0.38 0.47 0.60 0.80
0.32 0.39 0.47 0.55 0.62 0.72 0.77 0.81 0.88 0.89 0.87 0.88 0.92 0.90 0.89 0.90 0.90 0.90 0.82 0.73 0.67 0.71 0.74 0.75 0.73 0.66 0.56 0.50 0.46 0.40 0.34 0.29 0.25 0.24 0.25 0.27 0.31 0.32 0.33 0.37 0.40 0.48 0.63
0.34 0.40 0.49 0.59 0.62 0.70 0.84 0.85 0.88 0.93 0.97 0.97 1.02 1.05 0.99 0.95 0.95 0.97 0.96 0.88 0.79 0.78 0.76 0.75 0.72 0.69 0.64 0.57 0.52 0.49 0.44 0.37 0.30 0.28 0.25 0.23 0.25 0.30 0.33 0.36 0.39 0.42 0.52
0.38 0.43 0.52 0.62 0.68 0.75 0.92 1.03 0.98 1.00 1.03 1.05 1.05 1.03 1.05 1.06 0.96 0.92 0.97 0.98 0.92 0.86 0.82 0.77 0.73 0.66 0.61 0.59 0.60 0.57 0.50 0.45 0.40 0.35 0.31 0.27 0.24 0.24 0.29 0.34 0.38 0.39 0.43
0.44 0.48 0.56 0.62 0.72 0.85 0.95 1.09 1.06 1.01 1.03 1.06 1.02 1.00 0.98 1.05 1.05 0.97 0.92 0.93 0.94 0.90 0.83 0.79 0.78 0.76 0.72 0.65 0.69 0.73 0.67 0.54 0.46 0.41 0.38 0.34 0.29 0.26 0.26 0.29 0.35 0.40 0.42
0.43 0.49 0.56 0.65 0.75 0.82 0.89 0.97 1.05 1.02 1.04 1.10 1.06 1.04 1.01 0.99 1.03 1.06 0.98 0.91 0.86 0.87 0.88 0.83 0.81 0.80 0.80 0.74 0.71 0.76 0.77 0.73 0.57 0.41 0.36 0.36 0.34 0.31 0.30 0.29 0.31 0.37 0.42
0.42 0.50 0.56 0.66 0.75 0.81 0.96 1.06 1.14 1.24 1.24 1.26 1.25 1.14 1.05 1.00 0.97 1.00 1.01 0.96 0.90 0.84 0.85 0.83 0.79 0.77 0.77 0.73 0.64 0.75 0.83 0.71 0.56 0.46 0.36 0.31 0.32 0.33 0.31 0.31 0.32 0.33 0.38
0.39 0.50 0.59 0.69 0.76 0.80 0.99 1.14 1.11 1.18 1.18 1.11 1.07 1.10 1.07 1.02 0.98 0.95 0.95 0.95 0.97 0.91 0.81 0.78 0.79 0.78 0.80 0.80 0.68 0.60 0.61 0.61 0.63 0.53 0.44 0.39 0.36 0.35 0.34 0.33 0.32 0.32 0.35
0.36 0.47 0.58 0.72 0.82 0.84 0.92 1.11 1.15 1.09 1.05 1.05 1.09 1.08 1.11 1.11 1.05 0.96 0.92 0.91 0.91 0.90 0.83 0.76 0.78 0.80 0.81 0.81 0.76 0.66 0.58 0.50 0.50 0.59 0.49 0.42 0.46 0.43 0.40 0.38 0.36 0.35 0.35
0.37 0.47 0.55 0.68 0.81 0.87 0.87 0.99 1.15 1.10 1.05 1.04 1.08 1.12 1.11 1.14 1.12 1.02 0.91 0.87 0.83 0.81 0.80 0.74 0.68 0.69 0.73 0.73 0.70 0.68 0.68 0.65 0.54 0.55 0.53 0.41 0.41 0.41 0.43 0.46 0.47 0.44 0.42